Location: Heiligenberg
(48.5381°N, 7.3897°E)
Time: 23:23:27
(UTC+00:00)

Cosmos 1867 - Pass Details

Date: 26 May 2022
Orbit: 775 x 800 km, 65.0° (Epoch: 02 July)

Event Time Altitude Azimuth Distance (km) Brightness Sun altitude
Exits shadow 00:05:02 35° 220° (SW) 1,274 4.2 -19.9°
Maximum altitude 00:07:27 87° 307° (NW) 806 3.5 -19.8°
Drops below altitude 10° 00:12:58 10° 38° (NE) 2,384 7.0 -19.6°
Sets 00:15:24 0° 39° (NE) 3,318 7.9 -19.6°
